Location: Albergo Monte Pana
(46.5500°N, 11.7167°E)
Time: 03:22:14
(UTC+00:00)

Daily predictions for brighter satellites

Satellite Brightness Start Highest point End
(mag) Time Altitude Azimuth Time Altitude Azimuth Time Altitude Azimuth
Meteor 1-27 Rocket 3.9 00:07:32 70° NNW 00:07:32 70° NNW 00:12:44 10° N
SL-16 R/B 3.4 00:05:20 33° ESE 00:07:25 44° ENE 00:13:19 10° N
CZ-4 R/B 4.5 00:03:33 10° NNE 00:07:36 55° NE 00:07:36 55° NE
Cosmos 1733 Rocket 4.4 00:06:05 10° N 00:09:06 38° NNE 00:09:06 38° NNE
USA 308 4.5 00:11:58 33° N 00:11:58 33° N 00:15:23 10° NE
Meteor 1-11 Rocket 4.3 00:06:30 10° NNW 00:11:25 50° WNW 00:11:25 50° WNW
MOZ.5/SAFIR/RUBIN 5/SL-8 4.4 00:21:52 53° N 00:21:52 53° N 00:25:31 10° N
Cosmos 158 Rocket 4.3 00:24:00 10° NNW 00:28:23 59° NNE 00:28:23 59° NNE
Cosmos 1844 Rocket 4.0 00:29:45 28° WNW 00:30:33 29° NW 00:35:22 10° N
USA 281 3.8 00:34:03 41° W 00:34:03 41° W 00:39:22 10° NW
Cosmos 1862 Rocket 4.4 00:35:35 49° NNE 00:35:35 49° NNE 00:38:54 10° NNE
Resurs 1-4 Rocket 2.5 00:31:06 10° NNE 00:36:15 54° E 00:36:15 54° E
Cosmos 923 Rocket 4.4 00:31:39 10° NNW 00:36:48 58° ENE 00:37:24 54° E
SJ 16-02 2.1 00:39:48 51° NNE 00:39:48 51° NNE 00:43:10 10° NNE
Meteor 1-19 Rocket 4.2 00:39:36 68° ESE 00:39:45 68° E 00:45:14 10° NNE
Okean 1-7 4.5 00:45:54 30° E 00:45:54 30° E 00:49:30 10° NNE
Meteor 2-4 Rocket 4.4 00:45:30 42° SE 00:46:41 48° E 00:52:18 10° NNE
Cosmos 2341 Rocket 4.3 00:41:26 10° NNW 00:47:28 50° W 00:47:28 50° W
Gblst 52 Del rocket 4.4 00:48:26 59° W 00:49:33 75° NNW 00:55:18 10° ENE
Cosmos 2181 Rocket 3.9 00:49:09 67° WSW 00:49:40 71° W 00:55:55 10° N
Cosmos 2082 Rocket 2.4 00:45:49 10° NNW 00:51:27 68° ENE 00:53:02 46° SE
Cosmos 1238 Rocket 4.0 00:45:39 10° NNW 00:52:01 64° W 00:52:27 62° WSW
SL-8 Rocket 4.1 00:47:17 10° NNW 00:53:26 57° W 00:53:36 57° W
CZ-2D R/B 2.1 00:48:53 10° NNE 00:54:24 75° ESE 00:54:48 71° SE
Cosmos 1833 Rocket 2.9 00:49:42 10° NNW 00:54:33 57° WNW 00:54:33 57° WNW
UNK 3.9 00:56:09 72° N 00:56:09 72° N 01:00:21 10° NNW
Cosmos 1898 Rocket 4.2 00:55:43 43° ESE 00:56:11 44° ESE 01:01:12 10° NNE
SL-4 R/B 3.8 01:01:24 29° ESE 01:01:24 29° ESE 01:03:44 10° ESE
Meteor 1-18 Rocket 4.1 01:04:43 71° SW 01:05:21 82° WNW 01:11:08 10° N
ADEOS II 2.8 01:01:57 10° NNE 01:07:01 46° E 01:08:13 39° SE
NOSS 3-4 (A) 4.2 01:04:23 10° NW 01:11:18 66° NE 01:18:59 10° SE
NOSS 3-4 (C) 4.2 01:04:30 10° NW 01:11:24 66° NE 01:19:06 10° SE
Cosmos 1943 Rocket 3.7 01:10:37 22° SE 01:12:39 27° ESE 01:17:20 10° NE
Cosmos 2278 Rocket 2.3 01:15:40 54° W 01:16:26 59° WNW 01:22:04 10° NNE
Cosmos 2112 Rocket 4.0 01:11:09 10° NNW 01:16:30 81° ENE 01:18:04 47° SSE
Helios 1B rocket 3.0 01:15:57 10° N 01:19:25 51° NW 01:19:25 51° NW
Landsat 4 4.3 01:16:18 10° NNE 01:19:16 55° NNE 01:19:16 55° NNE
NOSS 3-3 (A) 4.1 01:18:42 50° WSW 01:20:08 66° NW 01:26:48 10° NE
NOSS 3-3 (C) 4.0 01:18:49 51° WSW 01:20:14 67° NW 01:26:54 10° NE
Meteor 1-29 4.2 01:16:58 10° NNE 01:19:12 39° NNE 01:19:12 39° NNE
BREEZE-M R/B 3.9 01:22:17 41° WNW 01:23:42 63° N 01:31:37 10° E
ATLAS 2AS CENTAUR R/B 3.5 01:18:16 10° NW 01:25:35 53° NE 01:32:19 10° ESE
IRS-1D 4.0 01:20:57 10° NNE 01:26:04 56° E 01:27:41 40° SSE
IDEFIX/ARIANE 42P 3.8 01:23:31 10° NNE 01:28:20 36° E 01:31:00 22° SSE
ATLAS 5 CENTAUR R/B 3.0 01:24:07 10° NW 01:28:14 38° W 01:28:14 38° W
Cosmos 2242 Rocket 3.4 01:31:03 79° W 01:31:06 79° W 01:35:32 10° N
Cosmos 2239 Rocket 4.4 01:25:39 10° N 01:31:54 87° E 01:34:54 34° S
DELTA 2 DEB (DPAF) 4.0 01:33:03 72° S 01:33:30 87° WSW 01:37:59 10° NNW
NPP 3.8 01:32:20 10° N 01:37:39 60° WNW 01:38:44 50° WSW
ADEOS Rocket 3.5 01:31:37 12° SSE 01:37:40 71° ENE 01:44:53 10° N
COSMOS 2406 4.5 01:35:20 10° NW 01:38:35 25° WNW 01:38:35 25° WNW
Cosmos 2084 3.3 01:39:57 69° SSE 01:40:08 70° SE 01:44:23 10° NE
Cosmos 2369 Rocket 3.9 01:37:50 13° SSE 01:41:27 25° ESE 01:45:55 10° NE
Cosmos 1908 Rocket 4.1 01:38:21 10° NNW 01:42:07 43° WNW 01:42:07 43° WNW
Gbstr 26 Del rocket 4.2 01:41:33 24° W 01:45:05 55° NNW 01:50:03 10° ENE
CZ-4C R/B 3.0 01:38:28 10° NW 01:45:41 61° WSW 01:53:56 10° SSE
Cosmos 1821 Rocket 4.1 01:41:48 10° NNW 01:48:02 61° W 01:50:23 38° SSW
IKONOS-2 4.5 01:48:13 45° SSE 01:49:31 86° ENE 01:53:50 10° NNW
Cosmos 1680 Rocket 3.7 01:45:12 10° NNW 01:50:15 46° WSW 01:50:39 46° WSW
SL-16 R/B 3.1 01:50:25 35° WSW 01:51:06 36° W 01:56:50 10° NNW
Cosmos 2297 3.8 01:49:46 38° S 01:51:59 74° ESE 01:57:43 10° NNE
DELTA 2 R/B (1) 4.0 01:53:56 40° SSW 01:54:19 41° S 01:59:30 10° ESE
BREEZE-M DEB (TANK) 3.6 01:58:52 26° E 01:58:52 26° E 02:00:16 10° ESE
Cosmos 1378 2.9 01:57:44 75° SSW 01:58:01 85° W 02:01:44 10° N
USA 234 3.3 01:54:54 10° NE 02:01:28 74° SE 02:04:47 32° SW
Cosmos 1535 Rocket 4.4 01:59:41 10° N 02:05:51 84° W 02:11:01 15° S
Okean 3 3.4 02:07:21 47° SW 02:08:26 68° W 02:12:45 10° N
Cosmos 1703 Rocket 4.3 02:08:54 33° W 02:09:19 34° WNW 02:13:18 10° N
Cosmos 1766 4.1 02:06:18 10° N 02:10:12 50° ENE 02:14:05 10° SSE
Nadezhda 3 Rocket 4.4 02:08:08 32° SW 02:10:40 48° WNW 02:16:48 10° N
Cosmos 1782 Rocket 4.0 02:07:20 10° NNW 02:11:33 41° W 02:12:06 39° WSW
Cosmos 1733 3.5 02:10:24 10° N 02:14:10 64° E 02:17:07 16° SSE
Cosmos 1300 Rocket 3.5 02:10:24 10° N 02:14:52 88° W 02:17:58 20° S
Resurs 1-4 Rocket 3.4 02:11:35 10° N 02:15:44 24° WNW 02:17:21 21° W
SJ 16-02 3.6 02:16:46 12° WNW 02:17:57 13° NW 02:20:03 10° NNW
Cosmos 2151 Rocket 4.0 02:13:56 10° N 02:18:27 64° E 02:22:56 10° SSE
CZ-4C R/B 3.8 02:18:17 36° SW 02:19:35 48° W 02:23:53 10° NNW
Okean 2 Rocket 3.0 02:18:10 10° N 02:22:38 90° ESE 02:26:36 13° S
Okean 1-7 4.2 02:22:45 25° W 02:23:19 26° WNW 02:26:55 10° NNW
Milstar 3 4.2 02:22:39 19° SSW 02:25:03 22° S 02:32:01 10° SE
Cosmos 1934 Rocket 4.1 02:19:27 10° NNW 02:25:35 55° W 02:30:06 18° SSW
ARGOS Delta rocket 4.3 02:22:53 10° N 02:26:57 37° WNW 02:28:20 29° WSW
Cosmos 1805 3.2 02:25:58 10° NNW 02:29:52 65° W 02:32:10 23° S
Cosmos 1937 Rocket 4.0 02:28:00 27° WSW 02:30:15 43° WNW 02:35:09 10° N
Cosmos 2221 Rocket 3.5 02:29:39 24° SSW 02:32:23 79° W 02:36:57 10° N
CZ-2D R/B 3.8 02:30:02 10° NNW 02:33:50 19° WNW 02:36:07 15° W
Cosmos 2082 Rocket 3.5 02:31:01 10° NW 02:34:48 20° W 02:34:48 20° W
SL-24 R/B - RUBIN 2 4.3 02:30:55 10° NW 02:36:34 72° NE 02:41:29 10° SE
ARIANE 5 R/B 2.5 02:31:31 10° NNE 02:36:47 90° ESE 02:41:07 15° SSW
Cosmos 1470 4.5 02:33:24 10° N 02:36:59 34° ENE 02:40:32 10° SE
X-37B 0.6 02:37:13 39° WSW 02:38:13 66° S 02:41:22 10° E
SL-4 R/B 3.2 02:37:10 25° WSW 02:38:17 28° SW 02:42:19 10° SSE
IRS-P3 4.1 02:35:03 10° N 02:40:23 69° WNW 02:44:21 18° SSW
USA 305 4.1 02:39:41 10° NW 02:43:48 44° NNE 02:47:56 10° E
Okean 1 Rocket 3.8 02:39:26 10° N 02:43:51 56° ENE 02:48:13 10° SSE
ADEOS II 3.2 02:42:04 10° N 02:46:28 28° WNW 02:49:09 18° WSW
Cosmos 1726 3.8 02:43:29 10° N 02:46:59 36° ENE 02:50:26 10° SE
Cosmos 372 Rocket 4.2 02:45:48 21° SW 02:48:59 51° WNW 02:53:59 10° NNE
OE (NEXTSAT) 4.2 02:48:30 24° W 02:50:27 82° S 02:53:55 10° E
Cosmos 1605 Rocket 4.1 02:45:20 10° NNW 02:51:16 54° W 02:57:15 10° SSW
Spot 4 Rocket 4.2 02:46:06 10° NNE 02:51:17 77° ESE 02:56:26 10° S
Cosmos 1943 Rocket 2.5 02:52:08 19° SW 02:56:05 52° WNW 03:01:37 10° NNE
Cosmos 1400 Rocket 3.4 02:52:39 10° N 02:56:47 64° ENE 03:00:52 10° SSE
Cosmos 2298 Rocket 4.0 02:52:08 13° SSW 02:56:55 89° WNW 03:02:15 10° NNE
CREW DRAGON DEMO-1 DEB 4.5 02:55:01 10° WNW 02:57:23 26° N 02:59:45 10° ENE
Cosmos 1356 Rocket 4.4 02:54:25 10° NW 02:57:54 26° W 02:59:55 18° SW
SL-08 R/B 3.6 02:54:30 10° S 02:59:13 47° W 03:03:52 10° NNW
Cosmos 2278 Rocket 4.3 02:58:51 10° WNW 03:01:47 14° NW 03:04:44 10° N
USA 306 3.8 02:57:38 10° NW 03:01:52 52° NNE 03:06:04 10° E
NOSS 3-4 (A) 4.4 02:55:41 10° NW 03:01:59 34° WSW 03:08:52 10° S
NOSS 3-4 (C) 4.4 02:55:47 10° NW 03:02:06 35° WSW 03:09:00 10° S
MSX 4.1 02:57:01 10° N 03:02:37 55° WNW 03:07:53 12° SW
IRAS Rocket 4.3 02:57:08 10° SSE 03:02:39 89° ENE 03:08:14 10° NNW
Cosmos 1378 Rocket 3.5 02:59:02 10° S 03:03:27 81° W 03:07:52 10° N
Cosmos 2263 4.3 02:59:24 10° SSW 03:05:07 80° ESE 03:10:56 10° NNE
Cosmos 2344 4.4 02:57:48 10° NW 03:07:08 88° SW 03:20:17 10° SE
IDEFIX/ARIANE 42P 3.4 03:03:12 10° N 03:07:52 34° WNW 03:11:48 14° SW
Cosmos 1842 3.3 03:07:03 10° SSW 03:10:52 60° WNW 03:14:42 10° N
Cosmos 2100 Rocket 4.0 03:04:58 10° N 03:11:12 88° E 03:17:27 10° S
Cosmos 1125 Rocket 3.5 03:09:27 10° SSW 03:14:45 86° WNW 03:20:03 10° NNE
CZ-4B R/B 4.1 03:11:07 10° N 03:15:27 36° WNW 03:19:35 11° SW
ATLAS 2AS CENTAUR R/B 3.1 03:09:39 10° NW 03:16:24 42° WSW 03:22:40 10° S
Cosmos 1674 Rocket 3.9 03:13:51 10° SSW 03:18:03 48° WNW 03:22:20 10° N
Cosmos 2173 Rocket 4.0 03:13:08 10° N 03:19:15 86° W 03:25:22 10° S
USA 307 3.5 03:15:40 10° NW 03:19:56 61° NNE 03:24:12 10° ESE
Cosmos 1833 4.2 03:17:04 10° NNW 03:22:48 81° WSW 03:28:33 10° SSE
ADEOS Rocket 4.3 03:18:50 10° SW 03:23:55 24° W 03:29:25 10° NW
Cosmos 2369 Rocket 2.4 03:19:38 10° SW 03:25:05 55° WNW 03:30:37 10° NNE
Cosmos 1459 Rocket 4.0 03:24:48 10° NNW 03:31:11 73° W 03:37:28 10° S
CZ-4C R/B 4.0 03:27:57 10° SSE 03:31:20 50° ENE 03:34:38 10° N
Cosmos 1953 3.8 03:28:10 10° N 03:31:59 42° ENE 03:35:45 10° SSE
Gbstr 26 Del rocket 4.1 03:27:19 10° WNW 03:32:44 51° N 03:37:07 10° E
USA 308 3.2 03:28:25 10° NW 03:32:44 71° NNE 03:37:01 10° ESE
CZ-4C R/B 4.4 03:29:27 10° WNW 03:33:20 15° WSW 03:37:24 10° SW
CZ-2C R/B 3.0 03:30:50 10° N 03:34:32 51° WNW 03:38:16 10° SSW
Cosmos 1727 Rocket 4.4 03:29:12 10° SSW 03:35:09 46° WNW 03:41:12 10° N
Cosmos 2150 Rocket 4.5 03:29:59 10° SW 03:35:15 48° WNW 03:40:30 10° NNE
Cosmos 2084 Rocket 3.9 03:32:44 10° NW 03:37:01 68° NE 03:41:27 10° SE
Cosmos 1484 Rocket 3.5 03:33:22 10° NNE 03:37:20 61° E 03:41:18 10° S
ALOS 2.4 03:33:29 10° NNE 03:38:12 83° ESE 03:42:51 10° SSW
Okean 2 3.9 03:35:13 10° SSW 03:39:10 43° WNW 03:43:10 10° N
SL-27 R/B 2.5 03:38:25 10° NNW 03:41:37 47° WSW 03:44:47 10° S
USA 234 3.9 03:38:03 10° NE 03:44:19 49° NNW 03:50:33 10° W
CZ-2C R/B 2.7 03:39:45 10° N 03:44:24 51° WNW 03:49:10 10° SW
PSLV R/B 3.5 03:40:11 10° N 03:44:25 73° WNW 03:48:35 10° SSW
Cosmos 1455 Rocket 3.3 03:40:29 10° N 03:44:51 78° E 03:49:10 10° SSE
